owner,sensor,date,latitude,longitude,air_pressure(mBar),qcFlag 
TABS,ioos:station:wmo:42043:1,2013-10-01T00:00:00Z,28.9818,-94.9186,1007.73,11111222 
TABS,ioos:station:wmo:42043:1,2013-10-01T00:30:00Z,28.9818,-94.9186,1006.91,11111222 
TABS,ioos:station:wmo:42043:1,2013-10-01T01:00:00Z,28.9818,-94.9186,1007.0,11111222 
TABS,ioos:station:wmo:42043:1,2013-10-01T01:30:00Z,28.9818,-94.9186,1007.51,11111222 
TABS,ioos:station:wmo:42043:1,2013-10-01T02:00:00Z,28.9818,-94.9186,1007.67,11111222 
TABS,ioos:station:wmo:42043:1,2013-10-01T02:30:00Z,28.9818,-94.9186,1007.6,11111222 
TABS,ioos:station:wmo:42043:1,2013-10-01T03:00:00Z,28.9818,-94.9186,1008.26,11111222 
TABS,ioos:station:wmo:42043:1,2013-10-01T03:30:00Z,28.9818,-94.9186,1008.44,11111222 
TABS,ioos:station:wmo:42043:1,2013-10-01T04:00:00Z,28.9818,-94.9186,1008.86,11111222 
TABS,ioos:station:wmo:42043:1,2013-10-01T04:30:00Z,28.9818,-94.9186,1009.04,11111222 
TABS,ioos:station:wmo:42043:1,2013-10-01T05:00:00Z,28.9818,-94.9186,1009.09,11111222 
TABS,ioos:station:wmo:42043:1,2013-10-01T05:30:00Z,28.9818,-94.9186,1009.34,11111222 
TABS,ioos:station:wmo:42043:1,2013-10-01T06:00:00Z,28.9818,-94.9186,1009.91,11111222 
TABS,ioos:station:wmo:42043:1,2013-10-01T06:30:00Z,28.9818,-94.9186,1010.11,11111222 
TABS,ioos:station:wmo:42043:1,2013-10-01T07:00:00Z,28.9818,-94.9186,1010.23,11111222 
TABS,ioos:station:wmo:42043:1,2013-10-01T07:30:00Z,28.9818,-94.9186,1010.16,11111222 
TABS,ioos:station:wmo:42043:1,2013-10-01T08:00:00Z,28.9818,-94.9186,1010.59,11111222 
TABS,ioos:station:wmo:42043:1,2013-10-01T08:30:00Z,28.9818,-94.9186,1010.55,11111222 
TABS,ioos:station:wmo:42043:1,2013-10-01T09:00:00Z,28.9818,-94.9186,1010.32,11111222 
TABS,ioos:station:wmo:42043:1,2013-10-01T09:30:00Z,28.9818,-94.9186,1010.01,11111222 
TABS,ioos:station:wmo:42043:1,2013-10-01T10:00:00Z,28.9818,-94.9186,1010.77,11111222 
TABS,ioos:station:wmo:42043:1,2013-10-01T10:30:00Z,28.9818,-94.9186,1009.73,11111222 
TABS,ioos:station:wmo:42043:1,2013-10-01T11:00:00Z,28.9818,-94.9186,1010.18,11111222 
TABS,ioos:station:wmo:42043:1,2013-10-01T11:30:00Z,28.9818,-94.9186,1010.97,11111222 
TABS,ioos:station:wmo:42043:1,2013-10-01T12:00:00Z,28.9818,-94.9186,1011.91,11111222 
TABS,ioos:station:wmo:42043:1,2013-10-01T12:30:00Z,28.9818,-94.9186,1015.59,11111222 
TABS,ioos:station:wmo:42043:1,2013-10-01T13:00:00Z,28.9818,-94.9186,1017.39,11111222 
TABS,ioos:station:wmo:42043:1,2013-10-01T13:30:00Z,28.9818,-94.9186,1013.04,11111222 
TABS,ioos:station:wmo:42043:1,2013-10-01T14:00:00Z,28.9818,-94.9186,1005.29,11111222 
TABS,ioos:station:wmo:42043:1,2013-10-01T14:30:00Z,28.9818,-94.9186,1008.68,11111222 
TABS,ioos:station:wmo:42043:1,2013-10-01T15:00:00Z,28.9818,-94.9186,1010.58,11111222 
TABS,ioos:station:wmo:42043:1,2013-10-01T15:30:00Z,28.9818,-94.9186,1006.24,11111222 
TABS,ioos:station:wmo:42043:1,2013-10-01T16:00:00Z,28.9818,-94.9186,1008.18,11111222 
TABS,ioos:station:wmo:42043:1,2013-10-01T16:30:00Z,28.9818,-94.9186,1002.36,11111222 
TABS,ioos:station:wmo:42043:1,2013-10-01T17:00:00Z,28.9818,-94.9186,999.68,11111222 
TABS,ioos:station:wmo:42043:1,2013-10-01T17:30:00Z,28.9818,-94.9186,997.3,11111222 
TABS,ioos:station:wmo:42043:1,2013-10-01T18:00:00Z,28.9818,-94.9186,999.4,11111222 
TABS,ioos:station:wmo:42043:1,2013-10-01T18:30:00Z,28.9818,-94.9186,998.07,11111222 
TABS,ioos:station:wmo:42043:1,2013-10-01T19:00:00Z,28.9818,-94.9186,997.63,11111222 
TABS,ioos:station:wmo:42043:1,2013-10-01T19:30:00Z,28.9818,-94.9186,995.82,11111222 
TABS,ioos:station:wmo:42043:1,2013-10-01T20:00:00Z,28.9818,-94.9186,997.88,11111222 
TABS,ioos:station:wmo:42043:1,2013-10-01T20:30:00Z,28.9818,-94.9186,1001.08,11111222 
TABS,ioos:station:wmo:42043:1,2013-10-01T21:00:00Z,28.9818,-94.9186,1004.92,11111222 
TABS,ioos:station:wmo:42043:1,2013-10-01T21:30:00Z,28.9818,-94.9186,1005.92,11111222 
TABS,ioos:station:wmo:42043:1,2013-10-01T22:00:00Z,28.9818,-94.9186,1005.98,11111222 
TABS,ioos:station:wmo:42043:1,2013-10-01T22:30:00Z,28.9818,-94.9186,1007.41,11111222 
TABS,ioos:station:wmo:42043:1,2013-10-01T23:00:00Z,28.9818,-94.9186,1009.96,11111222 
TABS,ioos:station:wmo:42043:1,2013-10-01T23:30:00Z,28.9818,-94.9186,1008.52,11111222 
TABS,ioos:station:wmo:42043:1,2013-10-02T00:00:00Z,28.9818,-94.9186,1007.77,11111222 
TABS,ioos:station:wmo:42043:1,2013-10-02T00:30:00Z,28.9818,-94.9186,1007.48,11111222 
TABS,ioos:station:wmo:42043:1,2013-10-02T01:00:00Z,28.9818,-94.9186,1007.41,11111222 
TABS,ioos:station:wmo:42043:1,2013-10-02T01:30:00Z,28.9818,-94.9186,1008.33,11111222 
TABS,ioos:station:wmo:42043:1,2013-10-02T02:00:00Z,28.9818,-94.9186,1009.33,11111222 
TABS,ioos:station:wmo:42043:1,2013-10-02T02:30:00Z,28.9818,-94.9186,1010.23,11111222 
TABS,ioos:station:wmo:42043:1,2013-10-02T03:00:00Z,28.9818,-94.9186,1010.71,11111222 
TABS,ioos:station:wmo:42043:1,2013-10-02T03:30:00Z,28.9818,-94.9186,1011.79,11111222 
TABS,ioos:station:wmo:42043:1,2013-10-02T04:00:00Z,28.9818,-94.9186,1012.49,11111222 
TABS,ioos:station:wmo:42043:1,2013-10-02T04:30:00Z,28.9818,-94.9186,1013.02,11111222 
TABS,ioos:station:wmo:42043:1,2013-10-02T05:00:00Z,28.9818,-94.9186,1013.66,11111222 
TABS,ioos:station:wmo:42043:1,2013-10-02T05:30:00Z,28.9818,-94.9186,1013.67,11111222 
TABS,ioos:station:wmo:42043:1,2013-10-02T06:00:00Z,28.9818,-94.9186,1013.19,11111222 
TABS,ioos:station:wmo:42043:1,2013-10-02T06:30:00Z,28.9818,-94.9186,1013.0,11111222 
TABS,ioos:station:wmo:42043:1,2013-10-02T07:00:00Z,28.9818,-94.9186,1013.35,11111222 
TABS,ioos:station:wmo:42043:1,2013-10-02T07:30:00Z,28.9818,-94.9186,1013.48,11111222 
TABS,ioos:station:wmo:42043:1,2013-10-02T08:00:00Z,28.9818,-94.9186,1013.53,11111222 
TABS,ioos:station:wmo:42043:1,2013-10-02T08:30:00Z,28.9818,-94.9186,1013.41,11111222 
TABS,ioos:station:wmo:42043:1,2013-10-02T09:00:00Z,28.9818,-94.9186,1013.26,11111222 
TABS,ioos:station:wmo:42043:1,2013-10-02T09:30:00Z,28.9818,-94.9186,1013.22,11111222 
TABS,ioos:station:wmo:42043:1,2013-10-02T10:00:00Z,28.9818,-94.9186,1013.29,11111222 
TABS,ioos:station:wmo:42043:1,2013-10-02T10:30:00Z,28.9818,-94.9186,1013.25,11111222 
TABS,ioos:station:wmo:42043:1,2013-10-02T11:00:00Z,28.9818,-94.9186,1013.47,11111222 
TABS,ioos:station:wmo:42043:1,2013-10-02T11:30:00Z,28.9818,-94.9186,1013.37,11111222 
TABS,ioos:station:wmo:42043:1,2013-10-02T12:00:00Z,28.9818,-94.9186,1013.38,11111222 
TABS,ioos:station:wmo:42043:1,2013-10-02T12:30:00Z,28.9818,-94.9186,1016.56,11111222 
TABS,ioos:station:wmo:42043:1,2013-10-02T13:00:00Z,28.9818,-94.9186,1022.81,11111222 
TABS,ioos:station:wmo:42043:1,2013-10-02T13:30:00Z,28.9818,-94.9186,1028.11,11111222 
TABS,ioos:station:wmo:42043:1,2013-10-02T14:00:00Z,28.9818,-94.9186,1011.41,11111222 
TABS,ioos:station:wmo:42043:1,2013-10-02T14:30:00Z,28.9818,-94.9186,1015.12,11111222 
TABS,ioos:station:wmo:42043:1,2013-10-02T15:00:00Z,28.9818,-94.9186,1010.51,11111222 
TABS,ioos:station:wmo:42043:1,2013-10-02T15:30:00Z,28.9818,-94.9186,1025.79,11111222 
TABS,ioos:station:wmo:42043:1,2013-10-02T16:00:00Z,28.9818,-94.9186,1026.71,11111222 
TABS,ioos:station:wmo:42043:1,2013-10-02T16:30:00Z,28.9818,-94.9186,1006.82,11111222 
TABS,ioos:station:wmo:42043:1,2013-10-02T17:00:00Z,28.9818,-94.9186,988.63,11111222 
TABS,ioos:station:wmo:42043:1,2013-10-02T17:30:00Z,28.9818,-94.9186,997.85,11111222 
TABS,ioos:station:wmo:42043:1,2013-10-02T18:00:00Z,28.9818,-94.9186,1021.95,11111222 
TABS,ioos:station:wmo:42043:1,2013-10-02T18:30:00Z,28.9818,-94.9186,1024.95,11111222 
TABS,ioos:station:wmo:42043:1,2013-10-02T19:00:00Z,28.9818,-94.9186,1025.17,11111222 
TABS,ioos:station:wmo:42043:1,2013-10-02T19:30:00Z,28.9818,-94.9186,1021.41,11111222 
TABS,ioos:station:wmo:42043:1,2013-10-02T20:00:00Z,28.9818,-94.9186,1015.05,11111222 
TABS,ioos:station:wmo:42043:1,2013-10-02T20:30:00Z,28.9818,-94.9186,1013.79,11111222 
TABS,ioos:station:wmo:42043:1,2013-10-02T21:00:00Z,28.9818,-94.9186,1011.61,11111222 
TABS,ioos:station:wmo:42043:1,2013-10-02T21:30:00Z,28.9818,-94.9186,1010.25,11111222 
TABS,ioos:station:wmo:42043:1,2013-10-02T22:00:00Z,28.9818,-94.9186,1010.45,11111222 
TABS,ioos:station:wmo:42043:1,2013-10-02T22:30:00Z,28.9818,-94.9186,1010.08,11111222 
TABS,ioos:station:wmo:42043:1,2013-10-02T23:00:00Z,28.9818,-94.9186,1007.87,11111222 
TABS,ioos:station:wmo:42043:1,2013-10-02T23:30:00Z,28.9818,-94.9186,1006.75,11111222 
TABS,ioos:station:wmo:42043:1,2013-10-03T00:00:00Z,28.9818,-94.9186,1005.88,11111222 
TABS,ioos:station:wmo:42043:1,2013-10-03T00:30:00Z,28.9818,-94.9186,1005.35,11111222 
TABS,ioos:station:wmo:42043:1,2013-10-03T01:00:00Z,28.9818,-94.9186,1005.79,11111222 
TABS,ioos:station:wmo:42043:1,2013-10-03T01:30:00Z,28.9818,-94.9186,1006.51,11111222 
TABS,ioos:station:wmo:42043:1,2013-10-03T02:00:00Z,28.9818,-94.9186,1007.11,11111222 
TABS,ioos:station:wmo:42043:1,2013-10-03T02:30:00Z,28.9818,-94.9186,1007.65,11111222 
TABS,ioos:station:wmo:42043:1,2013-10-03T03:00:00Z,28.9818,-94.9186,1008.07,11111222 
TABS,ioos:station:wmo:42043:1,2013-10-03T03:30:00Z,28.9818,-94.9186,1008.7,11111222 
TABS,ioos:station:wmo:42043:1,2013-10-03T04:00:00Z,28.9818,-94.9186,1009.14,11111222 
TABS,ioos:station:wmo:42043:1,2013-10-03T04:30:00Z,28.9818,-94.9186,1009.52,11111222 
TABS,ioos:station:wmo:42043:1,2013-10-03T05:00:00Z,28.9818,-94.9186,1010.0,11111222 
TABS,ioos:station:wmo:42043:1,2013-10-03T05:30:00Z,28.9818,-94.9186,1010.3,11111222 
TABS,ioos:station:wmo:42043:1,2013-10-03T06:00:00Z,28.9818,-94.9186,1011.04,11111222 
TABS,ioos:station:wmo:42043:1,2013-10-03T06:30:00Z,28.9818,-94.9186,1011.15,11111222 
TABS,ioos:station:wmo:42043:1,2013-10-03T07:00:00Z,28.9818,-94.9186,1011.27,11111222 
TABS,ioos:station:wmo:42043:1,2013-10-03T07:30:00Z,28.9818,-94.9186,1011.48,11111222 
TABS,ioos:station:wmo:42043:1,2013-10-03T08:00:00Z,28.9818,-94.9186,1011.56,11111222 
TABS,ioos:station:wmo:42043:1,2013-10-03T08:30:00Z,28.9818,-94.9186,1011.9,11111222 
TABS,ioos:station:wmo:42043:1,2013-10-03T09:00:00Z,28.9818,-94.9186,1011.9,11111222 
TABS,ioos:station:wmo:42043:1,2013-10-03T09:30:00Z,28.9818,-94.9186,1012.06,11111222 
TABS,ioos:station:wmo:42043:1,2013-10-03T10:00:00Z,28.9818,-94.9186,1011.78,11111222 
TABS,ioos:station:wmo:42043:1,2013-10-03T10:30:00Z,28.9818,-94.9186,1011.87,11111222 
TABS,ioos:station:wmo:42043:1,2013-10-03T11:00:00Z,28.9818,-94.9186,1011.96,11111222 
TABS,ioos:station:wmo:42043:1,2013-10-03T11:30:00Z,28.9818,-94.9186,1012.01,11111222 
TABS,ioos:station:wmo:42043:1,2013-10-03T12:00:00Z,28.9818,-94.9186,1011.99,11111222 
TABS,ioos:station:wmo:42043:1,2013-10-03T12:30:00Z,28.9818,-94.9186,1016.4,11111222 
TABS,ioos:station:wmo:42043:1,2013-10-03T13:00:00Z,28.9818,-94.9186,1025.68,11111222 
TABS,ioos:station:wmo:42043:1,2013-10-03T13:30:00Z,28.9818,-94.9186,1025.58,11111222 
TABS,ioos:station:wmo:42043:1,2013-10-03T14:00:00Z,28.9818,-94.9186,1019.37,11111222 
TABS,ioos:station:wmo:42043:1,2013-10-03T14:30:00Z,28.9818,-94.9186,1024.88,11111222 
TABS,ioos:station:wmo:42043:1,2013-10-03T15:00:00Z,28.9818,-94.9186,1026.11,11111222 
TABS,ioos:station:wmo:42043:1,2013-10-03T15:30:00Z,28.9818,-94.9186,1027.38,11111222 
TABS,ioos:station:wmo:42043:1,2013-10-03T16:00:00Z,28.9818,-94.9186,1015.33,11111222 
TABS,ioos:station:wmo:42043:1,2013-10-03T16:30:00Z,28.9818,-94.9186,1011.9,11111222 
TABS,ioos:station:wmo:42043:1,2013-10-03T17:00:00Z,28.9818,-94.9186,987.41,11111222 
TABS,ioos:station:wmo:42043:1,2013-10-03T17:30:00Z,28.9818,-94.9186,1002.48,11111222 
TABS,ioos:station:wmo:42043:1,2013-10-03T18:00:00Z,28.9818,-94.9186,1007.03,11111222 
TABS,ioos:station:wmo:42043:1,2013-10-03T18:30:00Z,28.9818,-94.9186,1016.72,11111222 
TABS,ioos:station:wmo:42043:1,2013-10-03T19:00:00Z,28.9818,-94.9186,1011.34,11111222 
TABS,ioos:station:wmo:42043:1,2013-10-03T19:30:00Z,28.9818,-94.9186,1010.5,11111222 
TABS,ioos:station:wmo:42043:1,2013-10-03T20:00:00Z,28.9818,-94.9186,1007.6,11111222 
TABS,ioos:station:wmo:42043:1,2013-10-03T20:30:00Z,28.9818,-94.9186,1008.12,11111222 
TABS,ioos:station:wmo:42043:1,2013-10-03T21:00:00Z,28.9818,-94.9186,1009.32,11111222 
TABS,ioos:station:wmo:42043:1,2013-10-03T21:30:00Z,28.9818,-94.9186,1010.99,11111222 
TABS,ioos:station:wmo:42043:1,2013-10-03T22:00:00Z,28.9818,-94.9186,1012.01,11111222 
TABS,ioos:station:wmo:42043:1,2013-10-03T22:30:00Z,28.9818,-94.9186,1013.48,11111222 
TABS,ioos:station:wmo:42043:1,2013-10-03T23:00:00Z,28.9818,-94.9186,1005.74,11111222 
TABS,ioos:station:wmo:42043:1,2013-10-03T23:30:00Z,28.9818,-94.9186,1003.2,11111222 
TABS,ioos:station:wmo:42043:1,2013-10-04T00:00:00Z,28.9818,-94.9186,1002.24,11111222 
TABS,ioos:station:wmo:42043:1,2013-10-04T00:30:00Z,28.9818,-94.9186,1002.21,11111222 
TABS,ioos:station:wmo:42043:1,2013-10-04T01:00:00Z,28.9818,-94.9186,1002.94,11111222 
TABS,ioos:station:wmo:42043:1,2013-10-04T01:30:00Z,28.9818,-94.9186,1003.74,11111222 
TABS,ioos:station:wmo:42043:1,2013-10-04T02:00:00Z,28.9818,-94.9186,1005.14,11111222 
TABS,ioos:station:wmo:42043:1,2013-10-04T02:30:00Z,28.9818,-94.9186,1005.58,11111222 
TABS,ioos:station:wmo:42043:1,2013-10-04T03:00:00Z,28.9818,-94.9186,1006.36,11111222 
TABS,ioos:station:wmo:42043:1,2013-10-04T03:30:00Z,28.9818,-94.9186,1006.88,11111222 
TABS,ioos:station:wmo:42043:1,2013-10-04T04:00:00Z,28.9818,-94.9186,1007.38,11111222 
TABS,ioos:station:wmo:42043:1,2013-10-04T04:30:00Z,28.9818,-94.9186,1007.82,11111222 
TABS,ioos:station:wmo:42043:1,2013-10-04T05:00:00Z,28.9818,-94.9186,1008.35,11111222 
TABS,ioos:station:wmo:42043:1,2013-10-04T05:30:00Z,28.9818,-94.9186,1009.0,11111222 
TABS,ioos:station:wmo:42043:1,2013-10-04T06:00:00Z,28.9818,-94.9186,1009.47,11111222 
TABS,ioos:station:wmo:42043:1,2013-10-04T06:30:00Z,28.9818,-94.9186,1009.69,11111222 
TABS,ioos:station:wmo:42043:1,2013-10-04T07:00:00Z,28.9818,-94.9186,1010.1,11111222 
TABS,ioos:station:wmo:42043:1,2013-10-04T07:30:00Z,28.9818,-94.9186,1010.17,11111222 
TABS,ioos:station:wmo:42043:1,2013-10-04T08:00:00Z,28.9818,-94.9186,1010.11,11111222 
TABS,ioos:station:wmo:42043:1,2013-10-04T08:30:00Z,28.9818,-94.9186,1010.13,11111222 
TABS,ioos:station:wmo:42043:1,2013-10-04T09:00:00Z,28.9818,-94.9186,1010.02,11111222 
TABS,ioos:station:wmo:42043:1,2013-10-04T09:30:00Z,28.9818,-94.9186,1010.06,11111222 
TABS,ioos:station:wmo:42043:1,2013-10-04T10:00:00Z,28.9818,-94.9186,1010.21,11111222 
TABS,ioos:station:wmo:42043:1,2013-10-04T10:30:00Z,28.9818,-94.9186,1010.21,11111222 
TABS,ioos:station:wmo:42043:1,2013-10-04T11:00:00Z,28.9818,-94.9186,1010.36,11111222 
TABS,ioos:station:wmo:42043:1,2013-10-04T11:30:00Z,28.9818,-94.9186,1010.3,11111222 
TABS,ioos:station:wmo:42043:1,2013-10-04T12:00:00Z,28.9818,-94.9186,1010.46,11111222 
TABS,ioos:station:wmo:42043:1,2013-10-04T12:30:00Z,28.9818,-94.9186,1014.43,11111222 
TABS,ioos:station:wmo:42043:1,2013-10-04T13:00:00Z,28.9818,-94.9186,1026.86,11111222 
TABS,ioos:station:wmo:42043:1,2013-10-04T13:30:00Z,28.9818,-94.9186,1026.43,11111222 
TABS,ioos:station:wmo:42043:1,2013-10-04T14:00:00Z,28.9818,-94.9186,1024.02,11111222 
TABS,ioos:station:wmo:42043:1,2013-10-04T14:30:00Z,28.9818,-94.9186,1025.38,11111222 
TABS,ioos:station:wmo:42043:1,2013-10-04T15:00:00Z,28.9818,-94.9186,1022.06,11111222 
TABS,ioos:station:wmo:42043:1,2013-10-04T15:30:00Z,28.9818,-94.9186,1017.73,11111222 
TABS,ioos:station:wmo:42043:1,2013-10-04T16:00:00Z,28.9818,-94.9186,1017.15,11111222 
TABS,ioos:station:wmo:42043:1,2013-10-04T16:30:00Z,28.9818,-94.9186,1020.66,11111222 
TABS,ioos:station:wmo:42043:1,2013-10-04T17:00:00Z,28.9818,-94.9186,1018.61,11111222 
TABS,ioos:station:wmo:42043:1,2013-10-04T17:30:00Z,28.9818,-94.9186,1015.02,11111222 
TABS,ioos:station:wmo:42043:1,2013-10-04T18:00:00Z,28.9818,-94.9186,1016.13,11111222 
TABS,ioos:station:wmo:42043:1,2013-10-04T18:30:00Z,28.9818,-94.9186,1012.01,11111222 
TABS,ioos:station:wmo:42043:1,2013-10-04T19:00:00Z,28.9818,-94.9186,1011.41,11111222 
TABS,ioos:station:wmo:42043:1,2013-10-04T19:30:00Z,28.9818,-94.9186,1009.61,11111222 
TABS,ioos:station:wmo:42043:1,2013-10-04T20:00:00Z,28.9818,-94.9186,1009.37,11111222 
TABS,ioos:station:wmo:42043:1,2013-10-04T20:30:00Z,28.9818,-94.9186,1000.96,11111222 
TABS,ioos:station:wmo:42043:1,2013-10-04T21:00:00Z,28.9818,-94.9186,1003.68,11111222 
TABS,ioos:station:wmo:42043:1,2013-10-04T21:30:00Z,28.9818,-94.9186,1002.62,11111222 
TABS,ioos:station:wmo:42043:1,2013-10-04T22:00:00Z,28.9818,-94.9186,1001.16,11111222 
TABS,ioos:station:wmo:42043:1,2013-10-04T22:30:00Z,28.9818,-94.9186,999.37,11111222 
TABS,ioos:station:wmo:42043:1,2013-10-04T23:00:00Z,28.9818,-94.9186,1001.25,11111222 
TABS,ioos:station:wmo:42043:1,2013-10-04T23:30:00Z,28.9818,-94.9186,1003.02,11111222 
TABS,ioos:station:wmo:42043:1,2013-10-05T00:00:00Z,28.9818,-94.9186,1001.73,11111222 
TABS,ioos:station:wmo:42043:1,2013-10-05T00:30:00Z,28.9818,-94.9186,1001.52,11111222 
TABS,ioos:station:wmo:42043:1,2013-10-05T01:00:00Z,28.9818,-94.9186,1002.72,11111222 
TABS,ioos:station:wmo:42043:1,2013-10-05T01:30:00Z,28.9818,-94.9186,1005.39,11111222 
TABS,ioos:station:wmo:42043:1,2013-10-05T02:00:00Z,28.9818,-94.9186,1006.34,11111222 
TABS,ioos:station:wmo:42043:1,2013-10-05T02:30:00Z,28.9818,-94.9186,1007.18,11111222 
TABS,ioos:station:wmo:42043:1,2013-10-05T03:00:00Z,28.9818,-94.9186,1007.77,11111222 
TABS,ioos:station:wmo:42043:1,2013-10-05T03:30:00Z,28.9818,-94.9186,1008.13,11111222 
TABS,ioos:station:wmo:42043:1,2013-10-05T04:00:00Z,28.9818,-94.9186,1008.18,11111222 
TABS,ioos:station:wmo:42043:1,2013-10-05T04:30:00Z,28.9818,-94.9186,1008.38,11111222 
TABS,ioos:station:wmo:42043:1,2013-10-05T05:00:00Z,28.9818,-94.9186,1008.94,11111222 
TABS,ioos:station:wmo:42043:1,2013-10-05T05:30:00Z,28.9818,-94.9186,1009.38,11111222 
TABS,ioos:station:wmo:42043:1,2013-10-05T06:00:00Z,28.9818,-94.9186,1009.41,11111222 
TABS,ioos:station:wmo:42043:1,2013-10-05T06:30:00Z,28.9818,-94.9186,1009.73,11111222 
TABS,ioos:station:wmo:42043:1,2013-10-05T07:00:00Z,28.9818,-94.9186,1009.97,11111222 
TABS,ioos:station:wmo:42043:1,2013-10-05T07:30:00Z,28.9818,-94.9186,1010.3,11111222 
TABS,ioos:station:wmo:42043:1,2013-10-05T08:00:00Z,28.9818,-94.9186,1010.68,11111222 
TABS,ioos:station:wmo:42043:1,2013-10-05T08:30:00Z,28.9818,-94.9186,1010.39,11111222 
TABS,ioos:station:wmo:42043:1,2013-10-05T09:00:00Z,28.9818,-94.9186,1010.46,11111222 
TABS,ioos:station:wmo:42043:1,2013-10-05T09:30:00Z,28.9818,-94.9186,1010.83,11111222 
TABS,ioos:station:wmo:42043:1,2013-10-05T10:00:00Z,28.9818,-94.9186,1010.35,11111222 
TABS,ioos:station:wmo:42043:1,2013-10-05T10:30:00Z,28.9818,-94.9186,1010.8,11111222 
TABS,ioos:station:wmo:42043:1,2013-10-05T11:00:00Z,28.9818,-94.9186,1010.89,11111222 
TABS,ioos:station:wmo:42043:1,2013-10-05T11:30:00Z,28.9818,-94.9186,1010.77,11111222 
TABS,ioos:station:wmo:42043:1,2013-10-05T12:00:00Z,28.9818,-94.9186,1010.83,11111222 
TABS,ioos:station:wmo:42043:1,2013-10-05T12:30:00Z,28.9818,-94.9186,1013.32,11111222 
TABS,ioos:station:wmo:42043:1,2013-10-05T13:00:00Z,28.9818,-94.9186,1026.02,11111222 
TABS,ioos:station:wmo:42043:1,2013-10-05T13:30:00Z,28.9818,-94.9186,1022.33,11111222 
TABS,ioos:station:wmo:42043:1,2013-10-05T14:00:00Z,28.9818,-94.9186,1026.67,11111222 
TABS,ioos:station:wmo:42043:1,2013-10-05T14:30:00Z,28.9818,-94.9186,1025.11,11111222 
TABS,ioos:station:wmo:42043:1,2013-10-05T15:00:00Z,28.9818,-94.9186,1024.5,11111222 
TABS,ioos:station:wmo:42043:1,2013-10-05T15:30:00Z,28.9818,-94.9186,1023.0,11111222 
TABS,ioos:station:wmo:42043:1,2013-10-05T16:00:00Z,28.9818,-94.9186,1019.97,11111222 
TABS,ioos:station:wmo:42043:1,2013-10-05T16:30:00Z,28.9818,-94.9186,1017.2,11111222 
TABS,ioos:station:wmo:42043:1,2013-10-05T17:00:00Z,28.9818,-94.9186,1017.95,11111222 
TABS,ioos:station:wmo:42043:1,2013-10-05T17:30:00Z,28.9818,-94.9186,1015.25,11111222 
TABS,ioos:station:wmo:42043:1,2013-10-05T18:00:00Z,28.9818,-94.9186,1008.39,11111222 
TABS,ioos:station:wmo:42043:1,2013-10-05T18:30:00Z,28.9818,-94.9186,1002.28,11111222 
TABS,ioos:station:wmo:42043:1,2013-10-05T19:00:00Z,28.9818,-94.9186,1002.26,11111222 
TABS,ioos:station:wmo:42043:1,2013-10-05T19:30:00Z,28.9818,-94.9186,1003.17,11111222 
TABS,ioos:station:wmo:42043:1,2013-10-05T20:00:00Z,28.9818,-94.9186,1005.03,11111222 
TABS,ioos:station:wmo:42043:1,2013-10-05T20:30:00Z,28.9818,-94.9186,1007.03,11111222 
TABS,ioos:station:wmo:42043:1,2013-10-05T21:00:00Z,28.9818,-94.9186,1006.08,11111222 
TABS,ioos:station:wmo:42043:1,2013-10-05T21:30:00Z,28.9818,-94.9186,1006.47,11111222 
TABS,ioos:station:wmo:42043:1,2013-10-05T22:00:00Z,28.9818,-94.9186,1006.86,11111222 
TABS,ioos:station:wmo:42043:1,2013-10-05T22:30:00Z,28.9818,-94.9186,1007.56,11111222 
TABS,ioos:station:wmo:42043:1,2013-10-05T23:00:00Z,28.9818,-94.9186,1006.52,11111222 
TABS,ioos:station:wmo:42043:1,2013-10-05T23:30:00Z,28.9818,-94.9186,1002.02,11111222 
TABS,ioos:station:wmo:42043:1,2013-10-06T00:00:00Z,28.9818,-94.9186,997.99,11111222 
TABS,ioos:station:wmo:42043:1,2013-10-06T00:30:00Z,28.9818,-94.9186,997.82,11111222 
TABS,ioos:station:wmo:42043:1,2013-10-06T01:00:00Z,28.9818,-94.9186,999.06,11111222 
TABS,ioos:station:wmo:42043:1,2013-10-06T01:30:00Z,28.9818,-94.9186,999.68,11111222 
TABS,ioos:station:wmo:42043:1,2013-10-06T02:00:00Z,28.9818,-94.9186,1000.73,11111222 
TABS,ioos:station:wmo:42043:1,2013-10-06T02:30:00Z,28.9818,-94.9186,1002.1,11111222 
TABS,ioos:station:wmo:42043:1,2013-10-06T03:00:00Z,28.9818,-94.9186,1004.22,11111222 
TABS,ioos:station:wmo:42043:1,2013-10-06T03:30:00Z,28.9818,-94.9186,1005.18,11111222 
TABS,ioos:station:wmo:42043:1,2013-10-06T04:00:00Z,28.9818,-94.9186,1006.01,11111222 
TABS,ioos:station:wmo:42043:1,2013-10-06T04:30:00Z,28.9818,-94.9186,1007.3,11111222 
TABS,ioos:station:wmo:42043:1,2013-10-06T05:00:00Z,28.9818,-94.9186,1008.47,11111222 
TABS,ioos:station:wmo:42043:1,2013-10-06T05:30:00Z,28.9818,-94.9186,1007.37,11111222 
TABS,ioos:station:wmo:42043:1,2013-10-06T06:00:00Z,28.9818,-94.9186,1002.79,11111222 
TABS,ioos:station:wmo:42043:1,2013-10-06T06:30:00Z,28.9818,-94.9186,1000.1,11111222 
TABS,ioos:station:wmo:42043:1,2013-10-06T07:00:00Z,28.9818,-94.9186,996.62,11111222 
TABS,ioos:station:wmo:42043:1,2013-10-06T07:30:00Z,28.9818,-94.9186,994.32,11111222 
TABS,ioos:station:wmo:42043:1,2013-10-06T08:00:00Z,28.9818,-94.9186,995.64,11111222 
TABS,ioos:station:wmo:42043:1,2013-10-06T08:30:00Z,28.9818,-94.9186,996.29,11111222 
TABS,ioos:station:wmo:42043:1,2013-10-06T09:00:00Z,28.9818,-94.9186,997.39,11111222 
TABS,ioos:station:wmo:42043:1,2013-10-06T09:30:00Z,28.9818,-94.9186,995.96,11111222 
TABS,ioos:station:wmo:42043:1,2013-10-06T10:00:00Z,28.9818,-94.9186,994.18,11111222 
TABS,ioos:station:wmo:42043:1,2013-10-06T10:30:00Z,28.9818,-94.9186,994.88,11111222 
TABS,ioos:station:wmo:42043:1,2013-10-06T11:00:00Z,28.9818,-94.9186,995.67,11111222 
TABS,ioos:station:wmo:42043:1,2013-10-06T11:30:00Z,28.9818,-94.9186,997.16,11111222 
TABS,ioos:station:wmo:42043:1,2013-10-06T12:00:00Z,28.9818,-94.9186,1001.64,11111222 
TABS,ioos:station:wmo:42043:1,2013-10-06T12:30:00Z,28.9818,-94.9186,1003.63,11111222 
TABS,ioos:station:wmo:42043:1,2013-10-06T13:00:00Z,28.9818,-94.9186,1007.24,11111222 
TABS,ioos:station:wmo:42043:1,2013-10-06T13:30:00Z,28.9818,-94.9186,1014.55,11111222 
TABS,ioos:station:wmo:42043:1,2013-10-06T14:00:00Z,28.9818,-94.9186,1008.71,11111222 
TABS,ioos:station:wmo:42043:1,2013-10-06T14:30:00Z,28.9818,-94.9186,1008.88,11111222 
TABS,ioos:station:wmo:42043:1,2013-10-06T15:00:00Z,28.9818,-94.9186,1013.38,11111222 
TABS,ioos:station:wmo:42043:1,2013-10-06T15:30:00Z,28.9818,-94.9186,1013.91,11111222 
TABS,ioos:station:wmo:42043:1,2013-10-06T16:00:00Z,28.9818,-94.9186,1010.78,11111222 
TABS,ioos:station:wmo:42043:1,2013-10-06T16:30:00Z,28.9818,-94.9186,1014.53,11111222 
TABS,ioos:station:wmo:42043:1,2013-10-06T17:00:00Z,28.9818,-94.9186,1013.36,11111222 
TABS,ioos:station:wmo:42043:1,2013-10-06T17:30:00Z,28.9818,-94.9186,1010.85,11111222 
TABS,ioos:station:wmo:42043:1,2013-10-06T18:00:00Z,28.9818,-94.9186,1015.32,11111222 
TABS,ioos:station:wmo:42043:1,2013-10-06T18:30:00Z,28.9818,-94.9186,1019.71,11111222 